Location: Isles
(48.9125°N, 2.8272°E)
Time: 21:47:18
(UTC+00:00)

Genesis I - Pass Details

Date: 03 February 2023
Orbit: 466 x 516 km, 64.5° (Epoch: 21 March)

Event Time Altitude Azimuth Distance (km) Brightness Sun altitude
Rises 18:53:57 0° 215° (SW) 2,638 7.3 -20.7°
Reaches altitude 10° 18:56:07 10° 214° (SW) 1,757 6.3 -21.1°
Maximum altitude 19:00:03 81° 128° (SE) 537 3.0 -21.7°
Enters shadow 19:00:06 81° 115° (ESE) 538 3.0 -21.7°
